Weather Roundup
Issued by NWS Chicago, IL

Home | Current Version | Previous Version | Text Only | Print | Product List | Glossary Off
Versions: 1 2 3 4 5 6 7 8 9 10 11 12 13 14 15 16 17 18 19 20 21 22 23 24 25 26 27 28 29 30 31 32 33 34 35 36 37 38 39 40 41 42 43 44 45 46 47 48 49 50

000
NZUS59 KLOT 200012
HRRLOT

CHICAGO AREA WEATHER ROUNDUP
NATIONAL WEATHER SERVICE CHICAGO/ROMEOVILLE IL
700 PM CDT SUN APR 19 2015

NOTE: "FAIR" INDICATES FEW OR NO CLOUDS BELOW 12,000 FEET WITH NO
SIGNIFICANT WEATHER AND/OR OBSTRUCTIONS TO VISIBILITY.

* THESE STATIONS ARE NOT UNDER NWS QUALITY CONTROL. THEY ALSO MAY NOT
  REPORT WEATHER SUCH AS PRECIPITATION OR FOG.

ILZ005-006-012>014-019>023-200100-
NORTHEAST ILLINOIS

CITY           SKY/WX    TMP DP  RH WIND       PRES   REMARKS
OHARE          LGT RAIN  53  51  93 E10       29.45F FOG
6HR MIN TEMP:  51; 6HR MAX TEMP:  68; 6HR PCP:  0.28;

MIDWAY         LGT RAIN  55  53  93 NE15      29.44F FOG
6HR MIN TEMP:  55; 6HR MAX TEMP:  68; 6HR PCP:  0.30;

AURORA         LGT RAIN  55  51  86 NE10      29.44F FOG
6HR MIN TEMP:  55; 6HR MAX TEMP:  72; 6HR PCP:  0.14;

LANSING*       LGT RAIN  54  51  89 E13       29.42F
JOLIET*        DRIZZLE   56  54  94 NE8       29.41F
WAUKEGAN       RAIN      45  44  97 N5        29.49F FOG
6HR MIN TEMP:  45; 6HR MAX TEMP:  59; 6HR PCP:  0.16;

DUPAGE AIRPORT RAIN      53  51  93 NE9       29.44F FOG
6HR MIN TEMP:  53; 6HR MAX TEMP:  70; 6HR PCP:  0.16;

WHEELING       RAIN      50  48  93 NE6       29.47F FOG
6HR MIN TEMP:  48; 6HR MAX TEMP:  63; 6HR PCP:  0.29;

KANKAKEE*      DRIZZLE   55  54  97 NE10      29.39F
MORRIS*        HVY RAIN  55  53  95 NE6       29.39F
LEWIS AIRPORT* DRIZZLE   54  52  94 NE14G20   29.42F
NORTHERLY IS     N/A     50  48  93 NE7         N/A
$$

WIZ051-052-058>065-066-070>072-200100-
SOUTHEAST WISCONSIN

CITY           SKY/WX    TMP DP  RH WIND       PRES   REMARKS
MILWAUKEE      LGT RAIN  42  35  76 NE8       29.53F
6HR MIN TEMP:  42; 6HR MAX TEMP:  55; 6HR PCP:  0.01;

KENOSHA*       RAIN      47  44  90 NE9       29.50F FOG
RACINE*        RAIN      44  40  85 NE9       29.53F FOG
BURLINGTON     LGT RAIN  46  41  82 NE6       29.50F
WAUKESHA       CLOUDY    50  36  57 E12       29.53F
WEST BEND      CLOUDY    54  30  40 E12       29.52F
$$

INZ001>003-010>013-019-020-200100-
NORTHWEST INDIANA

CITY           SKY/WX    TMP DP  RH WIND       PRES   REMARKS
GARY*          RAIN      54  50  87 E8        29.44F
MICHIGAN CITY* NOT AVBL
RENSSELAER*    NOT AVBL
VALPARAISO     LGT RAIN  52  51  97 E13       29.42F FOG
$$

LMZ740>746-200100-
SOUTHERN LAKE MICHIGAN

STATION/POSITION TIME  SKY/WX   TEMP WIND        PRES    VSBY
                                AIR  DIR/SP/G
                 (UTC)          (F)  (DEG/KT/KT) (MB)    (MI)
HARRISON CRIB    2300            48  360/  3/  5   N/A
BURNHAM HARBOR   0000            49   50/  7/ 12   N/A
CALUMET HARBOR   2312            50   40/  8/ 12   N/A
BURNS HARBOR     2320            53   80/ 11/ 20  998.0F
MICHIGAN CITY    2300            53   60/ 11/ 16   N/A
$$

ABBREVIATIONS USED IN REMARKS
   TC - TEMPERATURE IN CELSIUS
  WCI - WIND CHILL INDEX
   HX - HEAT INDEX
  VSB - VISIBILITY
$$



USA.gov is the U.S. government's official web portal to all federal, state and local government web resources and services.